Location: Shenandoah County Park
(38.9356°N, 78.4524°W)
Time: 01:51:49
(UTC-05:00)

A-11 Canister half - Pass Details

Date: 08 December 2023
Orbit: 1526 x 1682 km, 47.3° (Epoch: 01 March)

Event Time Altitude Azimuth Distance (km) Brightness Sun altitude
Rises 17:50:42 0° 229° (SW) 4,894 13.1 -11.3°
Reaches altitude 10° 17:53:50 10° 228° (SW) 3,920 12.3 -11.9°
Maximum altitude 18:03:55 77° 144° (SE) 1,720 9.2 -13.7°
Enters shadow 18:11:56 19° 62° (ENE) 3,297 10.1 -15.2°
